GFSFLT2_925_spd_231.txt.gz
Wind_Speed
14 4 9 10 4 8 4 3 5 1 4 8 4 7 6 14 14 10 15 12 13 14 19 19 25 25 27 23 18 13 18 17
14 9 9 10 4 5 4 3 1 1 4 5 6 3 5 12 13 9 9 10 11 14 21 24 24 23 28 22 26 12 17 14
6 9 10 4 3 3 6 6 8 4 5 8 7 10 14 13 14 11 9 10 9 10 23 21 19 19 25 20 21 17 18 12
11 8 15 10 11 11 7 6 5 4 6 10 18 10 6 12 20 12 10 10 9 14 18 33 16 17 24 26 25 20 19 15
11 8 3 5 8 7 5 3 7 6 5 8 13 12 7 10 10 12 9 12 9 14 20 25 28 25 23 22 19 22 19 18
7 6 4 2 11 11 2 3 10 11 6 10 16 13 7 18 6 14 7 13 15 12 15 26 32 31 29 25 24 22 18 15
9 8 4 6 5 12 7 8 5 14 13 6 7 5 7 4 10 17 16 15 14 11 6 17 22 26 24 21 18 18 18 16
4 8 9 8 12 9 15 14 15 11 5 8 3 2 4 10 9 8 19 11 17 16 13 14 20 24 22 20 17 14 13 10
6 6 10 9 9 15 1 16 17 7 9 5 5 7 8 7 12 23 21 14 18 13 14 22 22 21 22 20 15 11 9 6
5 5 4 4 17 14 16 5 6 7 11 15 9 14 15 19 25 23 16 19 16 17 22 25 22 24 19 13 11 9 6 9
4 4 7 9 10 7 8 5 3 6 4 5 8 5 13 21 17 13 16 19 22 29 29 28 29 22 18 11 9 13 14 12
1 6 5 2 10 12 9 5 15 12 2 6 8 5 6 9 11 9 10 25 23 29 32 31 24 20 15 12 16 13 10 8
1 4 0 1 8 12 5 4 15 3 5 10 5 3 4 12 17 18 17 27 29 28 25 25 22 18 15 17 13 9 7 7
4 4 3 2 6 3 5 4 4 11 11 12 4 7 13 14 16 18 18 25 27 26 24 21 17 16 18 15 8 7 6 6
3 3 1 1 4 6 8 5 3 2 8 10 13 9 11 12 12 13 18 20 26 27 25 21 16 16 17 11 8 6 5 6
2 2 2 3 2 5 9 6 6 5 10 9 14 12 10 12 9 8 17 17 21 26 23 21 16 14 13 8 3 4 4 4
3 5 10 7 6 10 11 13 12 8 5 8 9 11 11 11 8 9 15 17 19 21 21 19 18 15 9 5 5 4 2 1
2 2 7 4 8 8 5 7 8 1 3 10 12 11 8 7 12 15 18 21 19 23 23 19 15 9 5 4 4 4 1 1
1 2 2 3 4 6 8 8 7 5 9 10 8 15 10 8 16 25 23 21 20 19 17 17 12 12 6 9 5 9 3 4

GFSFLT2_925_spd_234.txt.gz
Wind_Speed
4 5 10 4 2 6 6 3 4 4 5 7 6 6 7 1 15 15 13 12 13 12 18 19 22 26 25 25 24 23 21 18
8 1 3 8 5 2 3 4 2 4 4 5 5 3 1 6 5 13 15 14 12 13 20 25 26 28 23 22 22 19 18 17
3 4 9 2 3 5 5 5 6 2 6 7 9 8 8 3 3 2 13 14 14 13 24 27 24 25 26 24 18 13 20 15
13 7 6 8 10 7 5 5 2 3 5 7 11 13 12 10 4 3 4 10 13 15 22 22 24 23 24 23 19 8 11 12
12 8 5 3 5 4 3 4 8 7 5 7 8 5 7 9 8 5 1 2 10 13 22 26 29 24 10 18 19 19 19 14
11 8 3 4 4 4 7 4 4 8 9 4 8 9 6 7 10 8 7 5 8 11 11 17 26 28 27 22 24 23 22 18
4 7 5 4 6 6 4 5 6 5 7 5 9 12 11 7 11 7 9 12 6 12 13 25 16 16 24 27 26 24 19 15
5 4 7 5 6 5 3 4 4 8 7 9 11 6 7 11 10 6 7 13 13 2 24 28 37 26 24 26 26 23 18 13
6 3 3 5 4 7 5 6 7 1 6 7 8 16 14 13 15 9 8 14 17 8 10 26 36 35 26 24 20 17 15 12
4 4 1 5 2 9 14 9 5 4 6 5 8 5 5 4 5 11 7 7 13 13 14 17 30 34 26 21 19 16 15 15
2 4 1 2 7 4 3 3 8 4 5 3 2 6 4 9 5 6 8 11 13 6 17 22 35 37 29 24 20 23 18 14
3 0 6 3 1 6 4 4 3 4 4 4 4 2 4 6 5 7 20 19 17 13 17 25 34 32 30 28 24 20 14 10
2 3 4 2 3 2 4 6 5 3 7 8 6 6 6 6 10 13 18 23 24 28 28 28 28 29 28 23 19 15 12 10
3 2 3 4 3 5 5 2 4 5 8 7 7 6 3 13 18 14 24 30 26 21 19 24 26 25 22 20 16 13 10 8
1 3 5 4 3 2 4 5 4 2 3 7 7 2 6 11 18 15 22 23 24 25 26 23 21 23 21 17 14 12 8 7
5 13 7 3 2 4 6 4 6 8 6 8 4 4 5 11 12 13 21 22 21 23 22 22 22 20 19 16 10 10 10 7
5 5 4 4 5 6 9 9 12 12 9 14 12 11 7 9 8 14 18 20 23 23 21 24 23 20 15 12 11 11 9 6
4 1 4 5 6 6 7 7 8 5 10 13 15 16 13 12 15 17 18 23 21 21 26 26 22 18 12 9 9 10 7 5
4 4 4 6 7 12 8 12 12 7 9 17 13 24 21 10 16 21 21 22 23 25 27 22 17 15 12 10 9 7 5 3

GFSFLT2_925_spd_237.txt.gz
Wind_Speed
2 2 7 2 3 3 7 3 3 3 6 9 8 9 9 11 10 12 13 12 13 11 17 19 20 22 20 19 19 20 21 18
5 3 0 5 6 3 3 4 3 4 5 6 6 8 8 8 15 15 13 13 10 10 16 21 23 22 20 20 19 20 19 18
3 3 5 3 1 5 5 5 5 2 6 8 11 10 10 8 11 13 13 13 11 11 18 25 23 21 19 18 18 18 17 17
11 6 3 4 8 6 5 6 1 4 7 4 9 11 12 12 11 11 13 13 12 13 17 21 26 24 24 22 18 12 7 12
11 8 2 4 4 4 6 4 6 6 7 4 4 7 7 9 0 5 11 8 5 6 14 20 26 28 26 21 17 8 13 14
10 8 4 3 2 2 6 4 4 7 11 3 6 12 7 8 7 3 6 10 8 7 6 16 19 10 21 18 15 16 16 16
7 5 6 6 5 5 4 6 6 7 9 7 14 16 12 8 9 6 1 7 14 11 8 12 18 21 16 17 18 18 18 17
3 4 7 3 4 4 3 3 6 1 6 5 2 5 7 6 9 9 4 5 10 13 13 9 5 14 21 20 21 19 16 14
5 1 2 4 2 2 2 3 4 4 7 2 3 6 4 8 7 8 8 7 7 10 15 19 13 9 3 28 27 22 16 12
3 3 3 5 3 2 5 2 3 2 4 2 6 6 5 7 9 9 9 11 10 14 21 17 27 9 2 9 12 17 15 13
4 4 0 4 5 1 4 4 3 5 4 4 4 5 2 4 9 7 9 13 18 23 27 27 24 19 23 15 13 13 15 14
3 4 6 5 3 4 2 4 6 5 4 7 6 3 3 6 8 6 10 19 24 29 29 32 33 40 32 26 20 18 15 13
2 3 3 2 4 4 2 6 3 1 1 3 3 3 4 7 7 8 16 24 24 21 27 31 29 30 25 23 21 18 14 10
2 4 3 3 3 4 5 5 5 4 3 3 2 1 6 7 12 15 13 14 18 15 16 24 28 26 23 21 18 15 12 10
5 4 4 5 5 4 2 3 4 4 4 5 4 3 3 3 11 7 12 14 17 20 20 23 30 27 23 20 18 17 15 12
4 4 4 1 5 3 5 5 6 6 7 2 3 5 5 5 5 5 12 16 20 21 21 21 28 27 24 23 20 19 16 14
4 4 1 4 6 5 8 4 8 10 12 5 8 6 6 4 5 6 12 17 22 20 19 21 25 21 22 22 21 17 15 13
3 2 5 4 5 4 4 5 8 6 2 6 8 8 7 6 9 13 14 20 22 22 24 23 21 21 18 17 17 17 15 14
3 3 5 4 7 6 5 8 9 7 7 6 6 8 11 6 14 17 18 21 21 23 24 24 22 19 16 15 16 15 14 14

GFSFLT2_925_spd_240.txt.gz
Wind_Speed
5 4 7 3 3 4 7 4 2 3 7 7 5 6 4 7 8 10 10 9 10 10 16 18 18 19 21 19 16 16 16 15
3 3 2 4 4 3 2 4 4 5 5 6 6 11 8 9 10 11 10 10 8 9 17 20 21 19 18 18 16 15 15 14
2 3 7 1 0 5 4 4 6 2 7 8 9 12 17 12 11 11 11 11 10 10 18 23 22 21 20 18 16 14 13 11
11 5 1 4 8 7 5 6 3 4 7 4 8 8 10 11 13 12 11 13 9 9 15 19 21 19 20 18 15 13 11 10
10 6 1 5 5 4 4 4 7 5 7 3 1 6 6 8 8 9 10 7 7 6 9 17 22 21 21 18 15 11 10 12
8 8 4 4 5 5 5 3 5 6 7 10 3 7 5 6 6 7 10 9 9 7 8 12 13 17 18 17 18 14 16 18
7 5 4 3 2 7 7 5 6 5 8 10 7 11 8 6 6 6 6 7 9 8 7 10 9 7 8 16 20 23 23 23
5 6 7 3 1 6 5 4 6 2 7 2 1 7 8 10 9 8 8 9 9 7 11 15 17 17 13 8 10 15 18 24
8 5 7 1 8 5 4 4 5 5 4 3 0 6 9 12 10 11 9 8 9 11 17 24 28 22 21 13 8 12 17 13
3 2 4 6 1 3 7 5 5 3 0 3 2 3 4 5 9 7 5 6 10 13 23 30 35 39 22 8 3 8 12 13
5 2 4 2 4 5 3 6 6 4 4 2 6 3 5 7 3 7 9 10 14 17 23 25 23 29 27 18 13 11 10 12
3 5 7 6 5 5 6 5 1 3 5 5 5 2 4 5 5 7 11 17 21 22 22 26 26 28 19 23 21 15 15 14
3 2 6 5 4 3 6 6 1 2 3 4 3 5 3 5 5 8 15 18 22 23 22 25 28 28 28 24 26 24 16 11
2 3 6 3 4 7 3 1 4 5 5 5 4 3 4 6 7 7 8 12 16 18 16 19 21 24 19 22 26 23 17 12
6 4 3 3 3 2 3 2 2 4 4 6 6 4 4 5 6 7 13 15 17 17 17 20 25 25 24 25 26 21 16 12
1 1 3 4 3 2 2 4 7 4 5 7 6 7 4 1 7 8 13 16 20 19 14 13 21 24 26 26 23 19 14 11
2 3 1 5 7 5 6 7 6 7 3 5 8 7 5 5 6 9 15 18 22 19 18 19 25 27 27 22 18 14 12 11
4 3 3 2 4 8 8 7 9 8 8 2 4 4 4 6 10 13 13 13 18 19 21 25 28 26 23 19 18 17 16 15
3 1 6 6 7 7 5 7 9 7 7 6 3 4 5 4 10 17 17 18 19 22 25 29 25 23 20 19 18 17 18 18